Regional Weather Roundup
Issued by NWS Charleston, SC

Current Version | Previous Version | Graphics & Text | Print | Product List | Glossary On
Versions: 1 2 3 4 5 6 7 8 9 10 11 12 13 14 15 16 17 18 19 20 21 22 23 24 25 26 27 28 29 30 31 32 33 34 35 36 37 38 39 40 41 42 43 44 45 46 47 48 49 50
000
ASUS42 KCHS 290112
RWRCHS

REGIONAL WEATHER ROUNDUP
NATIONAL WEATHER SERVICE CHARLESTON SC
900 PM EDT TUE JUL 28 2015

NOTE: "FAIR" INDICATES FEW OR NO CLOUDS BELOW 12,000 FEET WITH NO
SIGNIFICANT WEATHER AND/OR OBSTRUCTIONS TO VISIBILITY.

NOT ALL STATIONS ARE QUALITY CONTROLLED BY THE NATIONAL
WEATHER SERVICE. USE DATA WITH CAUTION...ESPECIALLY
DEWPOINT OBSERVATIONS.

SCZ027-030-031-034>040-042>050-290200-
...SOUTHEAST SOUTH CAROLINA...

CITY           SKY/WX    TMP DP  RH WIND       PRES   REMARKS
N CHARLESTON   MOCLDY    82  72  71 E7        29.96R
WATERFRONT PRK   N/A     82  76  82 E6        29.93S
MOUNT PLEASANT LGT RAIN  79  73  83 CALM      29.96S
JOHNS ISLAND   FAIR      81  75  83 E7        29.96S
PINOPOLIS      NOT AVBL
MONCKS CORNER  FAIR      82  73  74 CALM      29.96R
SUMMERVILLE    FAIR      82  73  74 E5        29.97R
BEAUFORT MCAS  MOCLDY    83  76  79 E6        29.96R HX  91
BEAUFORT ARPT  FAIR      81  77  89 E5        29.95S
HILTON HEAD IS CLOUDY    82  79  89 N3        29.97S HX  93
WALTERBORO     CLOUDY    84  72  65 SE7       29.96S
ALLENDALE      FAIR      84  77  79 SE7       29.95R HX  94

...SOUTHERN MIDLANDS AND PEE DEE...

CITY           SKY/WX    TMP DP  RH WIND       PRES   REMARKS
GEORGETOWN     NOT AVBL
KINGSTREE      NOT AVBL
ORANGEBURG     CLOUDY    82  74  76 S3        29.96R
BARNWELL       FAIR      82  81  94 CALM      29.96R HX  95
AIKEN          FAIR      82  70  65 CALM      30.00S THUNDER
MANNING        FAIR      81  68  65 E3        29.96R
COLUMBIA       CLOUDY    81  74  79 NE3       29.95R
SUMTER         PTCLDY    84  70  63 W3        29.94R
FLORENCE       MOCLDY    85  68  56 SE10      29.95S
MYRTLE BEACH   CLEAR     81  70  69 E9        29.99R
N MYRTLE BEACH PTCLDY    82  71  69 E7        29.97R

$$

GAZ063-065-086>088-099>101-113>116-118-119-134>141-150-290200-
...SOUTHEAST GEORGIA...

CITY           SKY/WX    TMP DP  RH WIND       PRES   REMARKS
SAVANNAH ARPT  MOCLDY    82  74  76 SE10      29.95S
HUNTER AAF     PTCLDY    82  78  87 E9        29.93S HX  90
FORT STEWART   PTCLDY    82  75  79 SE2       29.94R
STATESBORO     MOCLDY    85  78  80 SE3       29.95R HX  96
SYLVANIA       MOCLDY    86  78  76 CALM      29.96R HX  98
CLAXTON        FAIR      84  75  74 SE5       29.95R HX  92

...CSRA...CENTRAL AND FAR SOUTHEAST GEORGIA...

CITY           SKY/WX    TMP DP  RH WIND       PRES   REMARKS
THOMSON        PTCLDY    80  80  99 CALM      30.00R HX  90
AUGUSTA-BUSH   MOCLDY    86  73  65 CALM      29.94R HX  93
AUGUSTA-DANIEL MOCLDY    89  71  55 CALM      29.97R HX  95
SWAINSBORO     FAIR      84  79  84 CALM      29.97R HX  96
VIDALIA        MOCLDY    79  75  89 CALM      29.96R
EASTMAN        FAIR      84  82  93 CALM      29.97S HX  99
HAZLEHURST     FAIR      87  75  66 NE5       29.94R HX  96
ALMA           MOCLDY    86  73  65 SE7       29.95R HX  93
WAYCROSS       MOCLDY    87  76  70 SE3       29.96R HX  97
JESUP          FAIR      82  75  78 CALM      29.96R
BAXLEY         FAIR      86  70  58 SE3       29.95R HX  90
BRUNSWICK      PTCLDY    81  77  89 CALM      29.96R
SAINT SIMONS   PTCLDY    82  77  84 NE9       29.95R HX  90

$$

SCZ027-028-034-036>038-045-046-048>050-GAZ119-141-290200-
...LAKE AND SUPPLEMENTAL COASTAL OBSERVATIONS...

STATION/POSITION TIME  TEMP    WIND        PRES    WAVE   SWELL
                       AIR SEA DIR/SP/G            HT/PER HT/PER/DIR
                 (UTC) (F)     (DEG/KT/KT) (MB)    (FT/S) (FT/S/D)
UPR LAKE MARION  NOT AVBL
WINYAH BAY       NOT AVBL
LAKE MURRAY      0000   77      CALM  /  1 1013.9S
ACE BASIN NERRS  NOT AVBL
FORT PULASKI     0000   83 86   90/ 11/ 13 1014.9R
SAPELO ISLAND    0000   83      70/  6     1014.0R

$$

ANZ835-935-AMZ111-154-330-350-352-354-370-450-454-472-290200-
...C-MAN AND BUOY OBSERVATIONS...

STATION/POSITION TIME  TEMP    WIND        PRES    WAVE   SWELL
                       AIR SEA DIR/SP/G            HT/PER HT/PER/DIR
                 (UTC) (F)     (DEG/KT/KT) (MB)    (FT/S) (FT/S/D)
BUOY 41004       0050   83 84   70/  8/ 10 1013.8R   3/ 6   3/ 6
BUOY 41008       0050   82 82   60/ 12/ 14 1013.8F   2/ 4   2/140/ 6
FOLLY BEACH CMAN 0000   82      70/ 11/ 13 1014.6R
CAPERS NEARSHORE NOT AVBL
FRIPP NEARSHORE  0000   82      90/ 14/ 16 1013.7R


STATION/POSITION TIME  TEMP    WIND        PRES    WAVE   SWELL
                       AIR SEA DIR/SP/G            HT/PER HT/PER/DIR
                 (UTC) (F)     (DEG/KT/KT) (MB)    (FT/S) (FT/S/D)
5E ST. MARYS GA  0051      81                N/A     2/ 5
FRYING PAN BUOY  0050   83 84   70/ 10/ 14 1014.7R   4/ 7   3/140/ 7
BUOY 41025       NOT AVBL
CAPE LOOKOUT NC  0000   81      70/ 11/ 12 1014.4S
BUOY 41002       0050   82 82  230/ 17/ 19 1013.7R   8/ 8   2/ 70/11
BUOY 41010       0020   84 84  190/ 17/ 21 1013.7F
ST AUGUSTINE FL  0100   81 82  350/  9/ 10 1014.3R


$$



USA.gov is the U.S. government's official web portal to all federal, state and local government web resources and services.